Tracking 18843 objects as of 20-November-2017
HD Live streaming from Space Station
objects crossing your sky now

ASTRO H DEB


ASTRO H DEB is no longer on orbit


NORAD ID: 41446
Int'l Code: 2016-012Q
Perigee: N/A
Apogee: N/A
Inclination: N/A
Period: N/A
Semi major axis: N/A
RCS: N/A
Launch date: February 17, 2016
Source: Japan (JPN)
Launch site: TANEGASHIMA SPACE CENTER (TNSTA)
Decay date: 2017-11-04

Note: This is SATELLITE DEBRIS
aabbcc
Your satellite tracking list
Your tracking list is empty




NASA's NSSDC Master Catalog

Two Line Element Set (TLE):
1 41446U 16012Q   17306.04675215  .04847344  43429-1  13577-1 0  9997
2 41446  30.9862 213.8220 0018593 241.9427 117.9355 15.97701550 88740
Source of the keplerian elements: AFSPC